Location: G�ppingen
(48.7000°N, 9.6670°E)
Time: 09:37:51
(UTC+02:00)

ISS - Visible Passes

Search period start: 21 October 2018 00:00
Search period end: 30 October 2018 23:00
Orbit: 403 x 408 km, 51.6° (Epoch: 21 October)

Date Brightness Start Highest point End Pass type
(mag) Time Alt. Az. Time Alt. Az. Time Alt. Az.
26 Oct -0.9 07:06:19 10° S 07:08:25 16° SE 07:10:32 10° E visible
28 Oct -2.0 05:57:39 10° SSW 06:00:34 30° SE 06:03:31 10° E visible
29 Oct -1.4 05:06:46 12° S 05:08:41 19° SE 05:11:07 10° E visible
30 Oct -0.7 04:17:22 11° SE 04:17:22 11° SE 04:18:05 10° ESE visible
30 Oct -3.3 05:50:05 14° SW 05:52:48 58° SSE 05:56:02 10° ENE visible
